WODKAN Weather Reports


time (UTC)temp
C
wind
direction
speed
KPH
gust
KPH
rain 1hr
cm
rain 24hr
cm
rain mn
cm
humidity
%
barometer
mb
20260506224840 15 296 1.6 6.4 0.30 1.19 0.05 82 1006.0
20260506224346 15 325 0.0 4.8 0.30 1.19 0.05 82 1005.9
20260506223826 15 325 0.0 4.8 0.30 1.19 0.05 81 1005.6
20260506223332 15 325 0.0 3.2 0.30 1.19 0.05 81 1005.6
20260506222834 15 325 0.0 4.8 0.41 1.19 0.05 81 1005.6
20260506222331 15 325 1.6 4.8 0.51 1.19 0.05 81 1005.8
20260506221830 15 324 0.0 1.6 0.51 1.19 0.05 81 1005.9
20260506221330 15 325 0.0 3.2 0.51 1.19 0.05 80 1005.9
20260506220849 15 325 0.0 3.2 0.61 1.19 0.05 80 1006.0
20260506220333 15 324 0.0 3.2 0.51 1.09 0.05 80 1006.2
20260506215906 15 324 0.0 1.6 0.41 0.99 0.03 80 1006.4
20260506215343 15 324 0.0 3.2 0.30 0.89 0.00 79 1006.7
20260506214845 15 325 1.6 3.2 0.41 0.89 0.18 79 1006.4
20260506214347 15 325 0.0 1.6 0.79 0.89 0.18 79 1005.9
20260506213906 15 325 0.0 1.6 0.89 0.89 0.18 78 1005.7
20260506213328 15 325 0.0 1.6 0.89 0.89 0.18 78 1005.9
20260506212831 15 325 0.0 1.6 0.79 0.79 0.15 77 1005.9
20260506212354 15 325 0.0 3.2 0.71 0.71 0.15 77 1006.0
20260506211836 15 325 0.0 6.4 0.71 0.71 0.15 77 1005.9
20260506211337 15 325 1.6 6.4 0.71 0.71 0.15 76 1005.7
20260506210836 15 325 1.6 12.9 0.61 0.61 0.13 76 1005.4
20260506210337 15 309 3.2 12.9 0.61 0.61 0.13 76 1005.6
20260506205828 16 262 8.0 12.9 0.61 0.61 0.13 75 1006.1
20260506205332 16 280 3.2 6.4 0.61 0.61 0.13 74 1005.5
20260506204834 16 281 3.2 4.8 0.41 0.41 0.08 74 1005.0
20260506204337 16 281 3.2 4.8 0.00 0.00 0.00 72 1004.9
20260506203838 16 284 0.0 0.0 0.00 0.00 0.00 72 1004.3
20260506203340 16 284 0.0 0.0 0.00 0.00 0.00 72 1004.3
20260506202822 16 284 0.0 0.0 0.00 0.00 0.00 72 1004.3
20260506202332 16 284 0.0 0.0 0.00 0.00 0.00 72 1004.4
20260506201831 16 284 0.0 0.0 0.00 0.00 0.00 71 1004.3
20260506201352 17 284 0.0 0.0 0.00 0.00 0.00 71 1004.6
20260506200851 17 284 0.0 0.0 0.00 0.00 0.00 71 1004.6
20260506200330 17 284 0.0 0.0 0.00 0.00 0.00 71 1004.7
20260506195841 17 284 0.0 0.0 0.00 0.00 0.00 71 1004.8
20260506195325 17 284 0.0 0.0 0.00 0.00 0.00 70 1004.8
20260506194827 17 284 0.0 0.0 0.00 0.00 0.00 70 1004.8
20260506194328 17 284 0.0 0.0 0.00 0.00 0.00 69 1004.9
20260506193827 17 284 0.0 0.0 0.00 0.00 0.00 69 1004.8
20260506193330 17 284 0.0 0.0 0.00 0.00 0.00 68 1004.9
20260506192830 17 284 0.0 0.0 0.00 0.00 0.00 68 1004.9
20260506192351 17 284 0.0 0.0 0.00 0.00 0.00 68 1004.9
20260506191830 17 284 0.0 0.0 0.00 0.00 0.00 68 1004.9
20260506191354 18 284 0.0 0.0 0.00 0.00 0.00 68 1004.8
20260506190852 18 284 0.0 0.0 0.00 0.00 0.00 67 1004.7
20260506190334 18 284 0.0 0.0 0.00 0.00 0.00 67 1004.6
20260506185905 18 284 0.0 0.0 0.00 0.00 0.00 66 1004.5
20260506185347 18 284 0.0 0.0 0.00 0.00 0.00 66 1004.4
20260506184831 18 284 0.0 0.0 0.00 0.00 0.00 65 1004.4
20260506184335 18 284 0.0 0.0 0.00 0.00 0.00 64 1004.3
20260506183836 18 284 0.0 0.0 0.00 0.00 0.00 64 1004.3
20260506183339 19 284 0.0 1.6 0.00 0.00 0.00 63 1004.3
20260506182837 19 284 0.0 1.6 0.00 0.00 0.00 62 1004.2
20260506182337 20 284 0.0 0.0 0.00 0.00 0.00 60 1004.1
20260506181839 20 284 0.0 0.0 0.00 0.00 0.00 59 1004.1
20260506181342 20 284 0.0 3.2 0.00 0.00 0.00 58 1004.1
20260506180841 20 284 0.0 3.2 0.00 0.00 0.00 55 1004.1
20260506180342 21 284 0.0 3.2 0.00 0.00 0.00 56 1004.1
20260506175834 21 284 0.0 4.8 0.00 0.00 0.00 54 1004.1
20260506175334 21 284 1.6 4.8 0.00 0.00 0.00 53 1004.1
20260506174834 22 284 1.6 6.4 0.00 0.00 0.00 53 1004.1
20260506174342 22 284 3.2 8.0 0.00 0.00 0.00 52 1004.1
20260506173843 22 284 4.8 8.0 0.00 0.00 0.00 52 1004.2
20260506173343 22 277 3.2 8.0 0.00 0.00 0.00 51 1004.1
20260506172826 22 273 3.2 8.0 0.00 0.00 0.00 51 1004.1
20260506172327 22 289 3.2 8.0 0.00 0.00 0.00 50 1004.1
20260506171830 22 290 3.2 9.7 0.00 0.00 0.00 49 1004.2
20260506171333 22 289 6.4 12.9 0.00 0.00 0.00 49 1004.2
20260506170833 23 275 4.8 12.9 0.00 0.00 0.00 48 1004.1
20260506170335 23 257 3.2 12.9 0.00 0.00 0.00 48 1004.1
20260506165826 23 241 8.0 14.5 0.00 0.00 0.00 48 1004.1
20260506165332 23 294 8.0 14.5 0.00 0.00 0.00 48 1004.1
20260506164834 23 269 6.4 14.5 0.00 0.00 0.00 49 1004.1
20260506164340 23 248 6.4 14.5 0.00 0.00 0.00 48 1004.1
20260506163843 23 256 8.0 14.5 0.00 0.00 0.00 49 1004.1
20260506163334 23 271 4.8 16.1 0.00 0.00 0.00 49 1004.1
20260506162834 23 267 8.0 16.1 0.00 0.00 0.00 49 1004.1
20260506162333 23 239 4.8 12.9 0.00 0.00 0.00 48 1004.1
20260506161835 23 282 6.4 16.1 0.00 0.00 0.00 49 1004.2
20260506161336 23 263 8.0 16.1 0.00 0.00 0.00 48 1004.3
20260506160838 23 262 8.0 16.1 0.00 0.00 0.00 48 1004.3
20260506160333 23 267 4.8 16.1 0.00 0.00 0.00 49 1004.3
20260506155843 23 296 8.0 17.7 0.00 0.00 0.00 48 1004.3
20260506155345 23 296 9.7 17.7 0.00 0.00 0.00 47 1004.3
20260506154845 23 262 6.4 19.3 0.00 0.00 0.00 46 1004.3
20260506154346 23 273 11.3 19.3 0.00 0.00 0.00 46 1004.3
20260506153830 24 205 4.8 12.9 0.00 0.00 0.00 46 1004.3
20260506153331 24 250 6.4 12.9 0.00 0.00 0.00 46 1004.3
20260506152830 24 215 4.8 20.9 0.00 0.00 0.00 46 1004.2
20260506152333 24 264 9.7 20.9 0.00 0.00 0.00 46 1004.3
20260506151833 24 238 6.4 16.1 0.00 0.00 0.00 47 1004.3
20260506151346 24 286 9.7 22.5 0.00 0.00 0.00 47 1004.3
20260506150825 24 272 11.3 22.5 0.00 0.00 0.00 46 1004.4
20260506150332 24 279 6.4 19.3 0.00 0.00 0.00 49 1004.3
20260506145845 23 269 8.0 19.3 0.00 0.00 0.00 50 1004.4
20260506145346 23 283 9.7 22.5 0.00 0.00 0.00 49 1004.4
20260506144845 23 279 12.9 22.5 0.00 0.00 0.00 49 1004.3
20260506144345 23 279 11.3 24.1 0.00 0.00 0.00 49 1004.3
20260506143844 24 265 12.9 24.1 0.00 0.00 0.00 47 1004.3
20260506143405 24 238 14.5 20.9 0.00 0.00 0.00 48 1004.2
20260506142828 24 265 4.8 20.9 0.00 0.00 0.00 51 1004.3
20260506142329 24 279 11.3 22.5 0.00 0.00 0.00 49 1004.3
20260506141832 24 220 8.0 22.5 0.00 0.00 0.00 48 1004.3
20260506141333 24 259 6.4 17.7 0.00 0.00 0.00 48 1004.4
20260506140853 23 267 3.2 12.9 0.00 0.00 0.00 52 1004.4
20260506140333 23 234 4.8 16.1 0.00 0.00 0.00 52 1004.4
20260506135843 23 231 8.0 17.7 0.00 0.00 0.00 53 1004.4
20260506135339 23 277 6.4 16.1 0.00 0.00 0.00 54 1004.4
20260506134842 23 229 6.4 16.1 0.00 0.00 0.00 53 1004.5
20260506134359 23 277 8.0 16.1 0.00 0.00 0.00 53 1004.4
20260506133838 23 267 4.8 17.7 0.00 0.00 0.00 53 1004.4
20260506133338 23 290 8.0 17.7 0.00 0.00 0.00 54 1004.4
20260506132836 23 232 3.2 14.5 0.00 0.00 0.00 52 1004.4
20260506132336 23 266 6.4 17.7 0.00 0.00 0.00 52 1004.3
20260506131834 23 267 8.0 27.4 0.00 0.00 0.00 52 1004.4
20260506131335 23 285 11.3 27.4 0.00 0.00 0.00 52 1004.3
20260506130841 23 260 9.7 20.9 0.00 0.00 0.00 53 1004.4
20260506130342 23 273 6.4 17.7 0.00 0.00 0.00 55 1004.4
20260506125832 22 259 8.0 12.9 0.00 0.00 0.00 54 1004.5
20260506125335 22 197 4.8 14.5 0.00 0.00 0.00 54 1004.5
20260506124858 22 214 4.8 17.7 0.00 0.00 0.00 54 1004.5
20260506124334 22 257 6.4 16.1 0.00 0.00 0.00 55 1004.5
20260506123837 22 227 3.2 11.3 0.00 0.00 0.00 55 1004.4
20260506123359 22 228 4.8 11.3 0.00 0.00 0.00 55 1004.5
20260506122838 22 271 4.8 11.3 0.00 0.00 0.00 55 1004.5
20260506122338 22 268 6.4 14.5 0.00 0.00 0.00 56 1004.5
20260506121838 22 256 6.4 16.1 0.00 0.00 0.00 57 1004.5
20260506121342 22 213 4.8 17.7 0.00 0.00 0.00 56 1004.5
20260506120844 22 241 6.4 17.7 0.00 0.00 0.00 58 1004.5
20260506120358 22 271 4.8 17.7 0.00 0.00 0.00 58 1004.4
20260506115831 22 286 11.3 19.3 0.00 0.00 0.00 57 1004.4
20260506115333 22 259 4.8 14.5 0.00 0.00 0.00 58 1004.5
20260506114840 22 234 6.4 19.3 0.00 0.00 0.00 57 1004.5
20260506114344 22 292 11.3 19.3 0.00 0.00 0.00 58 1004.5
20260506113824 22 224 8.0 12.9 0.00 0.00 0.00 57 1004.5
20260506113328 22 159 6.4 17.7 0.00 0.00 0.00 57 1004.6
20260506112847 22 236 6.4 19.3 0.00 0.00 0.00 57 1004.5
20260506112333 22 296 9.7 17.7 0.00 0.00 0.00 58 1004.5
20260506111856 22 255 6.4 16.1 0.00 0.00 0.00 59 1004.5
20260506111347 21 257 4.8 19.3 0.00 0.00 0.00 59 1004.5
20260506110827 22 259 6.4 19.3 0.00 0.00 0.00 58 1004.5
20260506110331 22 265 8.0 16.1 0.00 0.00 0.00 59 1004.5
20260506105842 22 246 3.2 12.9 0.00 0.00 0.00 60 1004.5
20260506105343 22 261 8.0 12.9 0.00 0.00 0.00 58 1004.5
20260506104842 21 252 4.8 11.3 0.00 0.00 0.00 60 1004.4
20260506104359 21 256 3.2 22.5 0.00 0.00 0.00 60 1004.3
20260506103857 21 223 9.7 22.5 0.00 0.00 0.00 61 1004.3
20260506103338 21 267 12.9 19.3 0.00 0.00 0.00 60 1004.4
20260506102837 21 269 8.0 16.1 0.00 0.00 0.00 59 1004.4
20260506102344 21 306 8.0 16.1 0.00 0.00 0.00 59 1004.4
20260506101826 21 216 3.2 9.7 0.00 0.00 0.00 59 1004.3
20260506101330 21 225 4.8 14.5 0.00 0.00 0.00 60 1004.3
20260506100830 21 194 6.4 17.7 0.00 0.00 0.00 60 1004.4
20260506100354 21 242 8.0 17.7 0.00 0.00 0.00 59 1004.3
20260506095906 22 290 8.0 17.7 0.00 0.00 0.00 58 1004.3
20260506095347 22 252 9.7 17.7 0.00 0.00 0.00 60 1004.3
20260506094826 21 301 11.3 17.7 0.00 0.00 0.00 58 1004.2
20260506094349 21 249 6.4 17.7 0.00 0.00 0.00 59 1004.2
20260506093850 21 226 9.7 20.9 0.00 0.00 0.00 59 1004.2
20260506093331 21 284 11.3 20.9 0.00 0.00 0.00 60 1004.2
20260506092834 21 265 8.0 19.3 0.00 0.00 0.00 59 1004.1
20260506092351 21 265 12.9 19.3 0.00 0.00 0.00 59 1004.1
20260506091830 22 239 6.4 17.7 0.00 0.00 0.00 59 1004.0
20260506091352 21 205 4.8 20.9 0.00 0.00 0.00 59 1004.0
20260506090830 21 225 8.0 20.9 0.00 0.00 0.00 60 1004.0
20260506090331 21 265 8.0 16.1 0.00 0.00 0.00 59 1004.0
20260506085905 21 242 6.4 14.5 0.00 0.00 0.00 61 1004.0
20260506085326 21 227 4.8 14.5 0.00 0.00 0.00 61 1004.0
20260506084834 20 163 4.8 17.7 0.00 0.00 0.00 62 1003.9
20260506084337 20 194 8.0 17.7 0.00 0.00 0.00 62 1003.8
20260506083836 20 302 8.0 16.1 0.00 0.00 0.00 61 1004.0
20260506083339 20 197 6.4 17.7 0.00 0.00 0.00 62 1003.9
20260506082838 20 202 8.0 25.7 0.00 0.00 0.00 61 1003.9
20260506082338 20 235 8.0 30.6 0.00 0.00 0.00 61 1004.0
20260506081838 20 213 6.4 16.1 0.00 0.00 0.00 61 1003.9
20260506081333 20 229 6.4 17.7 0.00 0.00 0.00 62 1003.8
20260506080855 20 222 6.4 17.7 0.00 0.00 0.00 62 1003.8
20260506080336 20 234 8.0 14.5 0.00 0.00 0.00 62 1003.8
20260506073341 19 217 6.4 12.9 0.00 0.00 0.00 64 1003.7
20260506072904 19 221 4.8 11.3 0.00 0.00 0.00 65 1003.5
20260506072337 19 196 4.8 11.3 0.00 0.00 0.00 65 1003.6
20260506071836 18 227 6.4 11.3 0.00 0.00 0.00 66 1003.6
20260506071353 18 200 6.4 11.3 0.00 0.00 0.00 66 1003.5
20260506070831 18 187 1.6 9.7 0.00 0.00 0.00 68 1003.4
20260506070331 18 194 3.2 11.3 0.00 0.00 0.00 66 1003.3
20260506062329 17 242 3.2 9.7 0.00 0.00 0.00 68 1003.3
20260506061829 17 199 3.2 6.4 0.00 0.00 0.00 68 1003.3
20260506061335 17 168 1.6 9.7 0.00 0.00 0.00 68 1003.3
20260506060834 17 196 1.6 8.0 0.00 0.00 0.00 68 1003.2
20260506060336 17 164 0.0 4.8 0.00 0.00 0.00 68 1003.2
20260506051329 15 209 3.2 6.4 0.00 0.00 0.00 74 1003.4
20260506050829 15 209 1.6 8.0 0.00 0.00 0.00 75 1003.4
20260506050345 14 234 1.6 8.0 0.00 0.00 0.00 77 1003.4
20260506044905 13 68 0.0 1.6 0.00 0.00 0.00 83 1003.6
20260506044325 13 66 0.0 0.0 0.00 0.00 0.00 83 1003.6
20260506043848 13 66 0.0 0.0 0.00 0.00 0.00 84 1003.7
20260506043329 13 66 0.0 0.0 0.00 0.00 0.00 84 1003.7
20260506042828 12 66 0.0 0.0 0.00 0.00 0.00 84 1003.6
20260506042354 12 66 0.0 0.0 0.00 0.00 0.00 84 1003.7
20260506041836 11 66 0.0 0.0 0.00 0.00 0.00 83 1003.7
20260506041334 11 66 0.0 0.0 0.00 0.00 0.00 83 1003.7
20260506040834 11 66 0.0 0.0 0.00 0.00 0.00 83 1003.6
20260506040327 11 66 0.0 0.0 0.00 0.00 0.00 83 1003.7
20260506035842 11 66 0.0 0.0 0.00 0.00 0.00 83 1003.7
20260506035344 11 66 0.0 0.0 0.00 0.00 0.00 83 1003.7
20260506034824 11 66 0.0 0.0 0.00 0.00 0.00 83 1003.8
20260506034330 11 66 0.0 0.0 0.00 0.00 0.00 83 1003.8
20260506033833 11 66 0.0 0.0 0.00 0.00 0.00 83 1003.8
20260506033330 11 66 0.0 0.0 0.00 0.00 0.00 83 1003.8
20260506032830 11 66 0.0 0.0 0.00 0.00 0.00 82 1003.8
20260506032329 11 66 0.0 0.0 0.00 0.00 0.00 82 1003.9
20260506031833 11 66 0.0 0.0 0.00 0.00 0.00 82 1004.0
20260506031338 11 66 0.0 0.0 0.00 0.00 0.00 82 1004.0
20260506030836 11 66 0.0 0.0 0.00 0.00 0.00 82 1004.0
20260506030336 11 60 0.0 0.0 0.00 0.00 0.00 82 1004.0
20260506025826 11 60 0.0 0.0 0.00 0.00 0.00 82 1004.0
20260506025329 11 60 0.0 0.0 0.00 0.00 0.00 82 1004.1
20260506024829 11 60 0.0 0.0 0.00 0.00 0.00 81 1004.0
20260506024328 11 60 0.0 0.0 0.00 0.00 0.00 82 1004.1
20260506023827 11 60 0.0 0.0 0.00 0.00 0.00 82 1004.0
20260506023334 11 60 0.0 0.0 0.00 0.00 0.00 82 1004.1
20260506022837 11 60 0.0 0.0 0.00 0.00 0.00 82 1004.1
20260506022338 11 60 0.0 4.8 0.00 0.00 0.00 82 1004.2
20260506021841 11 60 0.0 4.8 0.00 0.00 0.00 82 1004.2
20260506021342 11 60 0.0 6.4 0.00 0.00 0.00 81 1004.2
20260506020841 12 60 3.2 6.4 0.00 0.00 0.00 81 1004.2
20260506020339 12 61 0.0 1.6 0.00 0.00 0.00 81 1004.3
20260506015834 12 61 0.0 0.0 0.00 0.00 0.00 81 1004.3
20260506015334 12 61 0.0 3.2 0.00 0.00 0.00 81 1004.3
20260506014833 12 61 0.0 3.2 0.00 0.00 0.00 81 1004.3
20260506014335 12 61 0.0 3.2 0.00 0.00 0.00 81 1004.3
20260506013855 12 61 0.0 3.2 0.00 0.00 0.00 81 1004.2
20260506013332 12 61 0.0 4.8 0.00 0.00 0.00 81 1004.2
20260506012832 12 61 0.0 8.0 0.00 0.00 0.00 81 1004.3
20260506012354 12 59 3.2 8.0 0.00 0.00 0.00 81 1004.3
20260506011836 12 61 0.0 1.6 0.00 0.00 0.00 80 1004.4
20260506011346 12 61 0.0 3.2 0.00 0.00 0.00 80 1004.4
20260506010845 12 61 1.6 3.2 0.00 0.00 0.00 80 1004.4
20260506010400 12 62 0.0 1.6 0.00 0.00 0.00 80 1004.4
20260506005849 12 62 0.0 1.6 0.00 0.00 0.00 80 1004.5
20260506005334 12 62 0.0 1.6 0.00 0.00 0.00 80 1004.4
20260506004834 12 62 0.0 0.0 0.00 0.00 0.00 80 1004.4
20260506004334 12 62 0.0 1.6 0.00 0.00 0.00 80 1004.3
20260506003833 12 62 0.0 1.6 0.00 0.00 0.00 80 1004.4
20260506003351 12 62 0.0 0.0 0.00 0.00 0.00 79 1004.4
20260506002829 12 61 0.0 1.6 0.00 0.00 0.00 79 1004.4
20260506002332 13 61 0.0 8.0 0.00 0.00 0.00 79 1004.4
20260506001831 13 61 0.0 8.0 0.00 0.00 0.00 80 1004.5
20260506001333 12 61 4.8 8.0 0.00 0.00 0.00 80 1004.4
20260506000836 12 275 0.0 9.7 0.00 0.00 0.00 79 1004.6
20260506000340 12 275 6.4 9.7 0.00 0.00 0.00 79 1004.7
20260505235833 12 84 1.6 11.3 0.00 0.00 0.00 79 1004.5
20260505235400 12 266 4.8 9.7 0.00 0.00 0.00 79 1004.8
20260505234826 12 72 1.6 6.4 0.00 0.00 0.00 79 1004.6
20260505234329 12 78 0.0 6.4 0.00 0.00 0.00 78 1004.8
20260505233833 13 79 1.6 6.4 0.00 0.00 0.00 78 1004.7
20260505233334 13 80 1.6 8.0 0.00 0.00 0.00 78 1004.8
20260505232834 13 80 0.0 8.0 0.00 0.00 0.00 78 1004.8
20260505232335 13 82 1.6 4.8 0.00 0.00 0.00 78 1004.8
20260505231832 13 82 1.6 4.8 0.00 0.00 0.00 78 1004.9
20260505231334 13 72 0.0 6.4 0.00 0.00 0.00 78 1005.0
20260505230834 13 74 3.2 6.4 0.00 0.00 0.00 78 1004.9
20260505230338 13 78 1.6 6.4 0.00 0.00 0.00 78 1005.0
20260505225849 13 78 3.2 6.4 0.00 0.00 0.00 77 1005.0
20260505225330 13 94 1.6 8.0 0.00 0.00 0.00 77 1005.0